Temp
18 22 22 22 20 20 20 21 21 21 18 18 20 21 22 22 18 19 19 19 19 19 18 17 18 17 17 16 16 15 15 15 14 14 14 14 14 14 13 13 13 12 12 12
21 22 20 19 18 19 19 21 22 20 18 18 21 21 23 21 21 20 20 20 20 19 18 19 18 18 18 17 17 16 16 15 15 15 14 14 14 14 14 14 14 13 13 12
21 20 17 19 18 19 20 20 20 20 19 18 18 23 24 22 20 19 19 19 18 19 19 19 18 19 18 18 18 17 16 16 16 15 15 15 15 16 15 15 15 14 13 13
20 17 18 19 19 19 20 18 18 18 19 23 19 26 24 24 24 22 22 20 20 19 20 19 19 19 19 19 18 17 17 16 16 16 16 16 16 17 17 16 15 15 14 13
20 18 18 19 19 18 19 16 17 17 19 19 20 23 27 22 24 24 23 22 20 19 19 20 20 20 20 19 19 18 18 17 17 17 17 17 17 17 17 16 16 16 15 15
18 15 17 19 16 16 15 17 17 17 19 22 21 22 27 25 26 25 23 21 20 19 20 20 20 20 20 20 19 19 19 18 18 18 18 18 18 17 17 17 17 16 16 16
18 18 16 16 18 16 17 19 22 22 22 25 18 20 27 26 23 25 24 22 20 20 20 21 21 21 20 20 20 20 20 19 19 19 19 18 18 18 18 17 17 17 16 16
20 19 17 17 19 20 18 19 23 23 24 24 17 22 27 23 21 21 21 21 20 20 21 21 21 21 21 20 20 20 20 20 19 19 19 19 18 18 18 17 17 16 16 16
19 19 15 15 15 17 17 18 18 20 17 21 24 24 24 21 22 20 20 20 20 20 21 21 21 21 21 21 21 21 20 20 20 19 19 19 18 18 18 17 17 17 16 16
20 19 15 14 15 14 17 17 19 19 21 23 25 23 28 22 23 22 22 21 21 20 21 21 21 21 21 21 21 21 20 20 20 19 19 19 19 18 18 18 17 17 16 16
19 19 15 15 16 18 16 18 17 18 19 23 25 27 26 26 25 24 23 22 21 20 20 21 21 21 21 21 21 21 20 20 19 19 19 19 18 18 18 18 17 17 16 16
19 20 19 18 15 14 16 20 20 22 20 18 18 25 21 23 25 24 24 23 21 21 21 21 21 21 21 21 20 20 20 20 19 19 19 18 18 18 17 17 16 16 16 16
17 19 19 18 16 14 16 17 18 16 17 19 21 27 20 20 19 21 23 22 21 22 21 21 21 21 21 20 20 20 20 19 19 19 18 18 18 17 17 16 15 15 15 15
17 19 21 22 21 18 16 15 16 19 20 22 21 26 25 23 21 21 20 21 21 21 21 21 21 21 21 20 20 20 19 19 19 18 18 18 17 17 16 15 15 14 14 14
18 18 19 20 17 16 18 17 15 16 20 21 24 22 25 26 24 23 22 21 20 20 21 21 21 21 21 20 20 20 19 19 19 18 18 17 17 16 15 15 14 14 14 14
15 18 17 18 18 17 17 18 17 17 18 20 20 20 22 21 22 21 21 21 19 20 21 22 21 21 21 20 20 20 19 19 18 18 17 17 16 15 15 14 14 14 13 13
16 18 17 19 16 16 17 17 17 17 18 19 19 21 24 22 21 22 22 21 20 21 22 22 22 22 21 21 20 20 19 19 18 18 17 16 16 15 14 14 13 13 13 13
16 17 18 18 16 17 22 16 20 19 20 19 21 22 22 23 23 22 21 21 21 22 23 23 22 22 21 21 20 20 19 18 18 17 17 16 16 15 14 13 13 13 12 12
16 18 15 17 18 20 20 16 17 17 20 20 19 20 22 20 17 19 21 21 23 23 24 24 23 23 21 21 20 19 19 18 18 17 16 16 16 15 14 13 13 12 12 12
12 15 18 13 16 18 21 22 17 18 20 23 20 20 20 20 19 23 23 22 23 23 22 23 23 22 22 21 20 19 19 18 17 17 16 16 16 14 14 13 12 12 12 11
12 13 14 17 16 20 21 16 17 19 23 20 21 20 20 19 21 22 21 21 21 22 22 20 21 21 21 20 20 19 18 18 17 17 16 16 15 14 13 12 12 12 11 11
14 14 14 15 15 16 16 14 20 23 20 20 20 19 18 18 19 19 20 20 21 21 22 21 20 20 20 19 19 18 18 17 17 16 16 15 14 13 12 12 12 11 11 10
15 18 18 18 19 20 16 20 20 20 20 20 19 20 21 20 20 19 18 19 19 20 21 20 19 19 19 19 18 18 17 16 16 16 15 14 13 12 12 11 11 11 10 10
15 16 17 17 19 16 16 19 20 21 21 20 20 21 21 21 21 19 18 18 19 19 19 19 19 19 19 18 17 17 16 16 16 15 14 13 12 12 11 11 10 10 10 10
19 15 16 18 19 15 15 16 19 22 21 20 19 19 20 21 20 19 19 19 19 19 18 18 18 18 17 17 16 16 16 15 14 14 12 12 11 11 11 10 10 10 9 9
18 17 17 18 20 19 20 20 20 21 21 22 20 20 20 20 20 20 20 19 19 18 18 18 17 16 16 15 15 15 15 14 13 12 11 11 11 10 10 10 10 10 9 8
Height
1570 1567 1564 1565 1569 1569 1569 1569 1568 1565 1570 1570 1560 1557 1550 1550 1551 1551 1550 1552 1553 1555 1558 1559 1560 1562 1563 1565 1567 1568 1570 1572 1573 1573 1574 1575 1575 1576 1575 1575 1575 1574 1573 1573
1569 1564 1568 1571 1573 1572 1571 1569 1564 1566 1570 1568 1557 1551 1544 1546 1547 1547 1547 1547 1549 1552 1554 1555 1556 1558 1560 1562 1563 1565 1567 1568 1570 1571 1572 1573 1573 1572 1572 1571 1571 1570 1569 1569
1565 1568 1571 1571 1572 1572 1570 1569 1568 1570 1567 1566 1564 1546 1540 1542 1544 1544 1544 1544 1546 1547 1549 1551 1552 1554 1557 1558 1560 1562 1564 1565 1566 1568 1569 1569 1569 1569 1568 1567 1567 1566 1566 1565
1566 1571 1570 1570 1569 1570 1570 1572 1573 1573 1570 1557 1564 1541 1536 1535 1538 1540 1540 1541 1542 1542 1543 1545 1548 1551 1553 1556 1558 1560 1561 1562 1563 1564 1565 1565 1565 1565 1565 1564 1563 1562 1561 1560
1565 1569 1570 1569 1568 1570 1570 1574 1573 1574 1569 1567 1559 1555 1524 1537 1535 1533 1536 1538 1540 1540 1541 1542 1545 1548 1550 1552 1555 1557 1558 1559 1560 1561 1561 1562 1561 1561 1561 1560 1558 1557 1556 1555
1567 1569 1569 1567 1573 1573 1575 1573 1573 1573 1568 1559 1553 1555 1524 1529 1526 1528 1533 1536 1538 1539 1539 1541 1543 1545 1547 1549 1551 1553 1554 1556 1557 1557 1558 1558 1558 1557 1556 1556 1554 1553 1551 1549
1566 1565 1569 1570 1570 1574 1572 1570 1562 1562 1562 1547 1563 1560 1521 1521 1525 1525 1530 1535 1536 1537 1538 1539 1540 1542 1545 1546 1548 1549 1551 1552 1554 1554 1554 1554 1553 1552 1550 1550 1548 1547 1545 1543
1558 1562 1564 1565 1562 1560 1567 1566 1555 1562 1552 1547 1566 1547 1516 1522 1526 1528 1531 1533 1534 1535 1536 1537 1538 1540 1542 1543 1545 1546 1548 1549 1550 1550 1550 1549 1548 1547 1545 1544 1542 1540 1538 1536
1555 1557 1565 1566 1566 1567 1567 1568 1564 1562 1571 1560 1532 1527 1518 1522 1524 1526 1528 1530 1531 1532 1533 1534 1536 1538 1539 1540 1542 1543 1544 1545 1546 1546 1546 1546 1544 1542 1540 1539 1536 1535 1533 1530
1546 1554 1565 1567 1568 1569 1565 1564 1563 1560 1563 1553 1527 1530 1505 1517 1515 1520 1523 1524 1527 1529 1531 1533 1534 1535 1536 1538 1539 1540 1541 1542 1543 1543 1543 1542 1541 1539 1537 1535 1532 1529 1527 1525
1547 1548 1566 1567 1561 1553 1566 1560 1562 1557 1554 1543 1533 1509 1495 1498 1504 1509 1515 1520 1523 1525 1528 1530 1531 1532 1534 1535 1536 1538 1539 1539 1540 1540 1540 1539 1538 1537 1534 1531 1529 1526 1523 1520
1544 1542 1549 1548 1556 1557 1553 1545 1545 1541 1551 1554 1553 1516 1500 1501 1501 1507 1511 1515 1519 1522 1524 1525 1527 1529 1531 1532 1534 1535 1536 1537 1537 1538 1538 1537 1536 1534 1531 1528 1524 1521 1517 1515
1540 1539 1543 1546 1554 1555 1550 1545 1543 1548 1548 1545 1541 1506 1502 1503 1505 1507 1509 1512 1515 1518 1520 1521 1523 1525 1527 1529 1531 1532 1533 1534 1534 1535 1535 1534 1533 1531 1528 1524 1520 1516 1513 1510
1536 1531 1524 1521 1521 1528 1542 1542 1541 1537 1540 1524 1523 1502 1496 1499 1502 1504 1505 1508 1510 1512 1515 1517 1519 1521 1523 1525 1527 1528 1529 1530 1531 1531 1531 1531 1529 1527 1523 1519 1515 1512 1509 1506
1534 1530 1525 1522 1528 1530 1526 1530 1538 1537 1522 1521 1503 1509 1493 1493 1496 1499 1502 1505 1506 1507 1509 1510 1513 1515 1517 1519 1522 1523 1525 1526 1526 1527 1527 1527 1525 1522 1518 1514 1510 1506 1503 1499
1532 1524 1528 1523 1523 1526 1525 1523 1525 1526 1521 1515 1514 1502 1495 1496 1496 1496 1497 1499 1499 1500 1502 1504 1507 1508 1510 1513 1515 1518 1520 1521 1521 1522 1522 1521 1520 1517 1513 1509 1505 1501 1498 1495
1525 1523 1528 1520 1524 1528 1522 1506 1511 1510 1508 1505 1510 1477 1488 1489 1489 1488 1489 1491 1490 1491 1493 1496 1498 1501 1503 1506 1510 1512 1514 1515 1516 1517 1517 1516 1514 1511 1506 1502 1498 1494 1491 1488
1516 1519 1520 1517 1524 1522 1479 1486 1485 1489 1486 1490 1482 1473 1479 1479 1482 1483 1481 1482 1482 1483 1485 1487 1491 1493 1495 1499 1502 1506 1508 1510 1511 1512 1512 1510 1507 1504 1500 1496 1493 1489 1486 1483
1507 1509 1519 1515 1508 1487 1478 1485 1486 1487 1474 1474 1477 1468 1466 1478 1480 1472 1470 1472 1473 1474 1476 1478 1481 1484 1485 1490 1495 1499 1502 1504 1506 1507 1506 1504 1501 1497 1493 1490 1487 1484 1481 1478
1507 1505 1502 1521 1510 1494 1461 1459 1470 1476 1471 1456 1458 1461 1461 1472 1475 1455 1460 1460 1461 1463 1466 1470 1474 1476 1478 1482 1486 1491 1495 1498 1500 1500 1500 1497 1494 1490 1486 1484 1482 1479 1476 1472
1501 1502 1496 1494 1493 1466 1457 1464 1470 1480 1457 1448 1448 1448 1456 1461 1453 1453 1452 1453 1454 1455 1457 1460 1465 1469 1473 1476 1481 1486 1489 1492 1493 1494 1493 1490 1487 1483 1480 1478 1476 1473 1469 1466
1476 1485 1487 1487 1487 1478 1455 1464 1459 1447 1444 1446 1446 1447 1449 1449 1450 1450 1450 1450 1450 1451 1451 1452 1458 1464 1467 1472 1476 1480 1483 1486 1487 1487 1486 1483 1480 1477 1475 1472 1470 1467 1464 1462
1462 1445 1452 1455 1438 1441 1441 1439 1443 1443 1444 1445 1445 1445 1445 1445 1444 1445 1445 1447 1447 1447 1448 1450 1454 1459 1464 1467 1471 1474 1478 1480 1481 1481 1479 1477 1474 1471 1469 1467 1464 1462 1459 1456
1442 1443 1443 1447 1430 1436 1439 1439 1439 1440 1440 1440 1442 1442 1443 1443 1443 1442 1443 1445 1446 1447 1448 1450 1453 1457 1460 1463 1467 1470 1472 1474 1474 1473 1472 1469 1467 1466 1463 1460 1458 1456 1453 1450
1425 1438 1431 1425 1425 1432 1432 1433 1434 1434 1434 1434 1436 1438 1439 1440 1440 1440 1441 1443 1445 1447 1448 1450 1452 1455 1458 1460 1462 1464 1466 1466 1467 1465 1463 1462 1460 1458 1457 1455 1453 1450 1447 1443
1417 1414 1421 1406 1421 1422 1424 1427 1427 1427 1426 1427 1430 1431 1432 1434 1435 1437 1437 1439 1440 1441 1444 1446 1449 1452 1454 1456 1457 1458 1459 1459 1458 1457 1456 1455 1454 1453 1451 1449 1446 1443 1440 1437
Wind_Speed
1 5 3 1 2 2 1 2 5 2 1 5 5 12 13 9 8 11 13 15 17 17 12 14 16 17 18 20 20 19 19 17 20 20 19 18 17 16 16 16 15 16 16 16
4 4 3 6 4 1 1 4 4 3 2 5 7 15 11 7 5 6 6 12 16 15 15 15 17 18 18 17 17 18 17 18 18 18 17 17 17 17 17 17 16 17 16 17
6 3 8 3 5 4 3 5 2 4 7 4 8 7 6 5 6 6 7 8 10 14 16 16 19 19 17 17 15 14 13 15 16 15 17 17 18 17 18 17 16 15 15 17
4 4 5 4 4 4 5 2 1 3 4 3 1 1 7 7 5 6 6 7 8 10 14 18 20 20 18 15 16 15 14 15 15 16 17 15 16 16 16 17 17 18 20 21
3 5 6 5 1 4 2 1 1 2 5 5 5 4 5 5 8 8 8 6 5 6 9 12 16 17 16 17 16 15 16 17 16 17 16 16 16 16 17 19 18 19 21 22
2 0 2 1 4 1 7 2 2 3 3 5 4 3 6 9 11 11 8 6 6 5 7 10 13 16 16 16 15 15 16 16 18 17 17 17 17 19 20 21 22 22 22 23
4 6 3 3 4 4 4 3 3 4 4 2 2 4 7 8 6 10 11 9 7 7 8 10 13 15 15 14 14 14 15 15 16 17 18 19 20 22 24 24 25 25 25 24
8 6 11 8 3 2 8 3 3 3 2 1 2 6 2 5 6 7 8 8 8 10 10 11 12 14 14 13 13 14 14 14 15 16 17 19 21 24 25 26 26 27 27 25
6 4 2 1 1 2 6 7 3 0 1 4 3 5 8 7 9 11 12 11 11 11 12 12 12 12 11 11 11 10 10 10 11 12 15 18 20 21 22 23 24 25 24 24
4 3 1 3 2 1 4 4 3 3 3 5 5 5 6 15 18 15 16 17 15 14 13 13 12 12 11 10 10 9 8 9 9 9 10 11 12 14 16 18 19 20 21 22
6 4 4 3 10 11 5 5 4 2 3 3 3 3 1 16 20 20 22 20 18 15 14 14 14 13 12 11 10 9 8 7 6 5 4 5 8 12 16 19 20 21 23 23
9 4 6 5 2 3 4 7 10 4 5 2 2 5 2 3 16 20 22 21 18 16 17 16 16 15 14 13 11 10 9 7 5 3 2 5 10 16 19 22 23 24 24 24
11 7 4 4 3 3 7 11 7 2 1 7 4 3 1 2 7 16 19 20 19 20 21 19 19 19 17 15 14 12 10 8 6 4 3 6 11 17 21 24 24 24 25 24
13 6 11 8 2 4 6 10 15 13 6 9 12 9 3 5 7 14 19 20 22 23 24 23 23 23 21 19 17 15 13 10 8 6 6 8 13 19 24 26 25 25 24 24
7 8 13 14 3 4 4 7 15 20 22 10 8 16 21 11 9 16 21 20 22 22 26 29 27 27 25 23 21 18 16 13 10 8 9 11 16 22 25 27 26 24 23 22
6 7 4 8 8 12 15 15 16 21 22 23 22 26 16 17 8 11 20 23 26 28 31 32 31 29 30 29 25 22 19 15 12 10 9 13 17 23 26 27 25 24 22 22
9 8 5 10 3 4 12 22 22 15 14 21 18 28 14 10 21 27 24 26 29 33 37 37 35 33 32 32 29 27 22 19 16 13 12 14 20 25 27 25 22 21 21 21
10 11 7 6 4 11 5 2 16 23 21 25 20 23 17 23 23 21 21 27 33 31 37 41 42 41 39 31 32 31 26 22 19 16 15 17 23 27 26 23 21 22 23 24
14 11 4 6 11 16 18 6 9 14 16 23 23 28 33 16 9 29 35 30 32 31 31 31 34 34 36 39 34 33 30 25 21 18 17 20 26 28 24 23 24 23 23 23
10 9 11 4 7 10 1 7 10 10 13 17 27 25 29 16 9 16 15 23 29 40 42 33 29 23 23 30 34 32 29 25 21 19 19 23 27 25 24 24 23 24 24 24
8 8 17 15 11 11 8 9 16 9 3 1 17 30 17 12 20 10 6 7 16 21 24 30 32 25 23 27 31 28 25 23 20 20 21 25 25 24 23 23 24 23 23 24
15 11 9 11 13 22 10 11 14 5 3 6 6 10 17 25 20 24 23 17 15 17 18 23 33 26 24 24 25 24 23 21 19 19 22 23 23 23 23 23 22 22 22 24
10 14 13 13 10 4 22 19 30 18 7 6 6 4 6 12 17 17 17 14 11 11 13 21 25 25 23 22 22 22 19 16 17 20 22 23 23 23 21 21 20 21 22 24
14 13 11 7 19 10 18 26 25 27 30 20 11 8 9 11 12 14 15 15 11 11 15 20 23 23 23 21 19 17 15 17 18 20 21 22 21 19 19 19 20 21 22 24
17 15 17 18 20 5 16 21 28 31 36 29 26 24 20 15 15 12 15 21 17 16 17 19 20 20 19 18 16 16 16 16 18 20 21 20 19 18 18 18 20 22 23 24
21 20 14 17 24 21 28 25 32 36 35 37 34 32 28 23 19 16 17 21 22 24 23 21 21 19 18 16 15 15 16 17 19 20 19 17 17 18 19 21 22 23 22 22
Wind_Direction
119 232 203 124 48 64 93 289 290 290 66 289 265 282 287 289 244 253 242 226 222 225 221 220 223 224 225 227 229 230 234 232 233 237 243 250 259 266 268 272 273 275 278 281
211 240 107 122 134 161 224 279 275 270 260 287 307 296 288 247 245 245 231 219 222 224 221 221 224 225 227 230 231 230 232 232 235 239 245 253 260 262 266 270 276 278 279 280
253 70 146 173 170 216 225 263 283 308 320 256 297 262 210 194 242 241 238 228 223 221 221 218 221 226 226 225 227 228 228 231 235 238 244 247 257 267 276 280 279 278 274 277
254 132 182 189 225 232 265 174 186 310 309 287 273 272 205 198 236 222 210 216 223 220 220 216 219 223 225 224 225 224 224 228 230 232 239 248 263 275 287 289 287 282 279 278
115 180 184 211 241 199 41 142 325 283 271 288 189 254 136 176 216 203 198 196 200 202 202 208 212 216 218 219 221 223 224 224 227 232 239 250 263 277 282 285 290 290 289 286
112 183 232 21 95 46 136 170 213 226 254 241 126 255 193 186 208 183 190 189 181 176 184 193 197 201 208 213 217 220 223 225 229 235 245 257 270 276 281 287 288 290 290 290
172 195 158 171 158 135 200 216 217 208 205 278 114 235 273 191 180 180 177 174 175 174 177 185 194 201 205 210 215 220 226 230 236 244 255 266 275 278 282 285 286 288 289 288
211 209 184 168 240 245 191 256 273 260 241 34 152 230 213 194 173 170 166 169 179 182 182 184 191 198 204 210 217 222 229 235 243 252 264 272 278 283 287 289 289 287 288 287
197 217 123 85 127 250 156 216 18 278 139 269 202 244 252 201 201 199 197 194 191 188 188 189 190 190 195 204 213 220 227 236 249 264 275 285 289 292 294 293 292 293 291 288
191 209 134 119 164 135 256 130 173 208 226 243 206 258 226 189 198 196 197 201 195 195 196 196 194 194 197 203 211 220 231 244 257 270 282 293 302 306 307 305 303 298 293 289
181 240 124 170 207 192 167 202 217 297 247 270 293 234 229 202 195 192 196 197 196 197 197 198 198 197 197 201 208 212 216 223 242 265 290 314 328 329 325 318 311 304 299 298
193 239 212 200 113 294 255 229 201 229 187 235 311 279 150 215 201 198 195 194 196 198 198 196 195 194 191 195 199 200 202 210 222 237 280 332 342 339 335 326 316 307 302 299
176 214 210 195 184 187 220 203 212 120 129 212 202 234 81 221 213 203 199 197 199 203 203 202 199 196 197 199 199 201 200 204 206 214 274 323 339 341 337 330 322 316 308 302
185 205 229 237 73 119 198 197 204 210 217 225 229 267 272 222 218 203 210 206 205 209 209 209 207 204 203 203 203 204 204 206 212 231 271 306 321 330 333 330 324 320 316 311
207 241 232 248 247 198 220 200 196 210 227 227 244 231 251 253 227 218 219 214 214 214 214 214 213 211 209 208 207 208 208 212 220 238 272 298 313 322 320 322 321 317 315 312
201 233 207 252 239 231 248 230 207 216 234 245 261 269 251 262 265 234 224 218 219 220 220 220 219 217 216 214 213 211 212 217 228 249 284 292 308 318 318 318 317 314 312 311
183 214 207 251 181 237 258 226 211 210 214 219 228 245 242 237 236 240 236 226 226 225 225 224 222 222 222 221 219 218 218 223 236 254 284 293 307 317 317 315 313 312 310 306
188 201 214 255 172 244 256 25 215 213 219 219 238 253 233 241 248 252 246 236 235 231 236 236 235 236 233 229 227 223 222 228 239 257 280 293 309 314 315 314 312 311 308 305
209 194 209 223 224 277 279 191 184 189 245 233 232 247 252 239 266 264 249 246 242 240 250 246 238 246 246 234 230 223 225 229 240 253 276 296 310 312 313 311 310 310 308 308
195 231 220 166 224 242 100 203 175 154 263 238 218 236 248 222 245 257 268 240 254 252 248 240 228 230 223 221 218 219 225 230 241 256 278 301 308 308 310 308 309 310 309 308
185 199 214 218 237 256 213 150 157 192 269 120 215 227 233 205 219 260 280 255 249 249 246 233 225 226 221 209 210 218 224 229 240 261 285 301 303 305 305 305 308 307 308 310
187 188 202 224 223 247 142 142 200 205 247 246 232 231 222 231 245 249 260 273 261 244 244 219 215 215 209 208 212 215 220 228 248 274 292 297 299 302 303 305 306 307 312 314
217 209 203 200 227 221 188 206 213 239 257 250 240 248 251 256 261 255 247 247 237 221 210 196 196 200 200 199 204 211 221 241 268 285 291 294 301 301 301 301 304 308 312 314
216 218 227 209 230 229 217 226 227 233 241 249 248 261 275 293 279 245 228 219 207 192 183 181 186 192 196 199 205 220 240 261 276 285 291 298 298 296 295 298 304 308 312 313
222 172 222 238 243 227 237 235 232 237 244 246 252 255 268 272 258 244 223 215 216 205 189 183 184 191 198 207 219 238 256 272 282 291 294 293 290 291 293 298 303 306 308 309
219 221 215 238 234 234 240 244 239 239 243 250 251 255 258 250 253 249 239 226 218 213 204 201 201 201 208 223 238 254 267 279 286 288 286 284 286 292 297 300 300 301 303 305